Location: Blanot
(47.1713°N, 4.2340°E)
Time: 20:12:24
(UTC+00:00)

IRS-1C - Pass Details

Date: 14 July 2020
Orbit: 815 x 817 km, 98.8° (Epoch: 14 August)

Event Time Altitude Azimuth Distance (km) Brightness Sun altitude
Rises 02:51:14 0° 11° (N) 3,356 8.4 -9.9°
Reaches altitude 10° 02:53:36 10° 8° (N) 2,419 7.5 -9.6°
Maximum altitude 02:58:52 60° 290° (WNW) 929 4.3 -9.0°
Drops below altitude 10° 03:04:05 10° 211° (SSW) 2,402 5.9 -8.4°
Enters shadow 03:04:13 - 211° (SSW) 2,452 6.0 -8.4°
